CDT,Max TemperatureF,Mean TemperatureF,Min TemperatureF,Max Dew PointF,MeanDew PointF,Min DewpointF,Max Humidity, Mean Humidity, Min Humidity, Max Sea Level PressureIn, Mean Sea Level PressureIn, Min Sea Level PressureIn, Max VisibilityMiles, Mean VisibilityMiles, Min VisibilityMiles, Max Wind SpeedMPH, Mean Wind SpeedMPH, Max Gust SpeedMPH,PrecipitationIn, CloudCover, Events, WindDirDegrees
2010-10-1,73,59,44,51,46,43,93,64,35,30.20,30.14,30.09,10,10,3,12,2,15,0.00,0,,24
2010-10-2,65,55,44,52,45,39,93,71,49,30.31,30.17,30.06,10,10,9,24,10,30,0.00,3,,2
2010-10-3,59,48,37,39,37,35,92,68,43,30.41,30.35,30.30,10,10,10,17,7,22,0.00,0,,49
2010-10-4,65,51,36,41,37,35,92,63,34,30.43,30.36,30.32,10,10,8,8,3,12,0.00,0,,102
2010-10-5,69,54,39,45,40,36,86,61,35,30.43,30.36,30.31,10,10,10,12,4,14,0.00,0,,159
2010-10-6,75,58,40,49,44,39,100,68,35,30.33,30.25,30.17,10,10,10,13,6,17,0.00,0,,212
2010-10-7,81,65,49,58,52,46,93,68,42,30.21,30.16,30.12,10,10,2,9,2,12,0.00,0,,318
2010-10-8,82,69,55,60,56,52,93,65,37,30.16,30.10,30.04,10,10,10,10,5,13,0.00,0,,176
2010-10-9,81,67,53,58,52,46,100,66,32,30.09,30.04,29.99,10,10,6,14,5,17,0.00,0,,174
2010-10-10,80,66,52,58,52,48,89,64,39,30.01,29.95,29.90,10,10,10,13,6,20,0.00,0,,190
2010-10-11,75,64,53,58,55,52,100,75,49,29.91,29.85,29.78,10,9,2,20,4,26,0.37,5,Rain-Thunderstorm,221
2010-10-12,63,57,51,57,55,52,100,89,78,30.06,29.93,29.82,10,4,0,12,3,15,0.00,5,Fog,269
2010-10-13,68,56,44,56,47,38,100,70,40,30.28,30.19,30.06,10,9,5,22,9,26,0.00,0,,333
2010-10-14,69,54,38,43,39,35,92,60,28,30.30,30.20,30.04,10,9,2,16,7,22,0.00,0,,241
2010-10-15,71,58,44,45,42,39,83,59,34,30.16,30.10,30.03,10,10,9,15,4,20,0.00,0,,297
2010-10-16,78,60,42,52,46,38,89,63,36,30.17,30.11,30.06,10,10,10,15,9,21,0.00,0,,183
2010-10-17,79,63,47,51,47,43,93,61,29,30.13,30.06,29.99,10,10,10,13,5,15,0.00,0,,216
2010-10-18,79,64,48,61,53,45,100,70,40,30.01,29.95,29.88,10,9,4,14,5,20,0.24,3,Rain-Thunderstorm,229
2010-10-19,63,53,42,56,44,37,96,68,39,30.06,30.01,29.94,10,10,9,13,4,15,0.00,3,,54
2010-10-20,73,57,40,47,43,40,96,67,38,30.04,30.01,29.96,10,10,10,20,7,23,0.00,0,,234
2010-10-21,77,60,43,53,46,42,100,66,31,30.08,30.02,29.99,10,9,1,10,4,12,0.00,2,,85
2010-10-22,75,65,54,53,47,43,71,58,44,30.05,30.00,29.95,10,10,10,22,12,29,T,2,Rain,147
2010-10-23,74,67,59,63,57,47,93,69,45,29.94,29.90,29.83,10,9,5,25,15,32,0.21,4,Rain,173
2010-10-24,74,66,57,62,58,55,97,77,57,29.82,29.76,29.68,10,10,10,23,11,29,0.00,3,,192
2010-10-25,74,65,56,62,59,56,100,77,53,29.66,29.45,29.16,10,8,2,32,18,41,0.00,2,,166
2010-10-26,73,60,46,63,44,30,72,50,28,29.73,29.48,29.14,10,9,1,36,16,48,0.19,3,Rain-Thunderstorm,246
2010-10-27,63,54,44,39,34,27,71,49,27,30.17,29.91,29.72,10,10,10,21,11,25,0.00,0,,244
2010-10-28,55,43,31,32,27,22,70,51,32,30.45,30.36,30.19,10,10,10,21,9,28,0.00,0,,313
2010-10-29,63,45,27,30,26,21,92,56,20,30.45,30.33,30.14,10,10,10,13,6,16,0.00,0,,170
2010-10-30,72,56,39,40,33,27,70,49,27,30.11,29.99,29.88,10,10,10,21,10,24,0.00,0,,187
2010-10-31,73,56,39,42,39,36,86,60,33,30.04,29.97,29.91,10,10,10,20,7,25,0.00,0,,101